Torna al catalogo

DMSP 5D-2 F11 DEB

AttivoSSO
NORAD 28312·DEBRIS·🇺🇸 United States

Lanciato Nov 28, 1991 da Vandenberg Space Force Base

Loading…

Prossimi Passaggi (prossime 24 ore)

TLE

AggiornatoSource: Space-Track

Epoca: Sep 13, 2026, 00:44 UTC

1 28312U 91082Z   26256.03074794  .00000554  00000-0  24934-3 0  9990
2 28312  98.6001 287.4830 0010407 206.3853 153.6799 14.26172167159757

Traccia DMSP 5D-2 F11 DEB in tempo reale con AllMySat

Download on the App Store